GW5190 Weather Reports


time (UTC)temp
F
wind
direction
speed
knots
gust
knots
rain 1hr
in
rain 24hr
in
rain mn
in
humidity
%
barometer
mb
20260503225113 59 253 7.8 16.5 0.00 0.00 0.00 36 1011.1
20260503224611 59 210 1.7 13.0 0.00 0.00 0.00 36 1011.3
20260503224109 59 250 8.7 14.8 0.00 0.00 0.00 36 1011.0
20260503223607 59 247 7.0 20.9 0.00 0.00 0.00 36 1011.1
20260503223102 59 244 5.2 13.0 0.00 0.00 0.00 36 1011.1
20260503222600 59 271 8.7 15.6 0.00 0.00 0.00 35 1011.2
20260503222058 59 200 2.6 17.4 0.00 0.00 0.00 37 1011.3
20260503221555 60 232 5.2 13.9 0.00 0.00 0.00 36 1011.3
20260503221053 59 261 9.6 21.7 0.00 0.00 0.00 36 1011.3
20260503220549 60 261 0.9 12.2 0.00 0.00 0.00 36 1011.2
20260503220046 62 260 7.0 11.3 0.00 0.00 0.00 33 1011.2
20260503215543 61 282 1.7 9.6 0.00 0.00 0.00 36 1011.2
20260503215040 59 286 5.2 8.7 0.00 0.00 0.00 37 1011.1
20260503214538 59 253 9.6 17.4 0.00 0.00 0.00 36 1011.3
20260503214034 59 237 7.8 22.6 0.00 0.00 0.00 35 1011.3
20260503213533 59 252 13.0 20.9 0.00 0.00 0.00 35 1011.2
20260503213029 59 254 7.8 14.8 0.00 0.00 0.00 36 1011.3
20260503212527 59 234 6.1 20.9 0.00 0.00 0.00 34 1011.4
20260503212024 60 258 14.8 19.1 0.00 0.00 0.00 34 1011.3
20260503211521 60 250 5.2 18.2 0.00 0.00 0.00 35 1011.4
20260503211017 60 250 6.1 23.5 0.00 0.00 0.00 36 1011.4
20260503210514 60 222 4.3 18.2 0.00 0.00 0.00 35 1011.3
20260503210009 60 255 4.3 16.5 0.00 0.00 0.00 35 1011.5
20260503205506 60 240 8.7 17.4 0.00 0.00 0.00 34 1011.4
20260503205002 60 257 3.5 21.7 0.00 0.00 0.00 35 1011.5
20260503204500 60 277 5.2 13.9 0.00 0.00 0.00 34 1011.1
20260503203956 61 234 3.5 12.2 0.00 0.00 0.00 34 1011.1
20260503203454 61 254 8.7 20.0 0.00 0.00 0.00 33 1011.2
20260503202950 62 277 4.3 16.5 0.00 0.00 0.00 32 1011.2
20260503202448 62 208 2.6 14.8 0.00 0.00 0.00 33 1011.6
20260503201946 60 274 4.3 17.4 0.00 0.00 0.00 34 1011.6
20260503201444 60 264 1.7 13.9 0.00 0.00 0.00 34 1011.5
20260503200941 61 198 3.5 13.9 0.00 0.00 0.00 33 1011.8
20260503200437 61 197 4.3 13.9 0.00 0.00 0.00 32 1011.8
20260503195934 60 251 6.1 23.5 0.00 0.00 0.00 34 1011.9
20260503195432 61 141 3.5 12.2 0.00 0.00 0.00 34 1011.9
20260503194928 60 243 5.2 17.4 0.00 0.00 0.00 33 1011.9
20260503194425 60 253 8.7 18.2 0.00 0.00 0.00 33 1012.1
20260503193920 60 295 2.6 12.2 0.00 0.00 0.00 36 1012.4
20260503193416 61 254 11.3 21.7 0.00 0.00 0.00 35 1012.1
20260503192912 61 242 11.3 12.2 0.00 0.00 0.00 36 1012.2
20260503192408 60 272 3.5 13.9 0.00 0.00 0.00 37 1012.5
20260503191904 60 249 2.6 9.6 0.00 0.00 0.00 37 1012.4
20260503191401 60 251 7.0 12.2 0.00 0.00 0.00 35 1012.5
20260503190858 62 254 2.6 13.9 0.00 0.00 0.00 34 1012.5
20260503190355 60 297 4.3 16.5 0.00 0.00 0.00 35 1012.7
20260503185852 61 252 4.3 16.5 0.00 0.00 0.00 35 1012.9
20260503185348 60 224 2.6 26.1 0.00 0.00 0.00 35 1013.0
20260503184848 60 190 3.5 13.0 0.00 0.00 0.00 35 1012.7
20260503184344 60 260 9.6 19.1 0.00 0.00 0.00 34 1012.9
20260503183840 59 249 9.6 17.4 0.00 0.00 0.00 34 1013.1
20260503183338 60 273 7.0 24.3 0.00 0.00 0.00 34 1013.0
20260503182835 60 243 6.1 12.2 0.00 0.00 0.00 37 1013.0
20260503182334 59 250 13.0 17.4 0.00 0.00 0.00 36 1013.0
20260503181831 61 228 9.6 16.5 0.00 0.00 0.00 34 1013.1
20260503181328 60 186 5.2 20.9 0.00 0.00 0.00 37 1013.0
20260503180824 61 232 11.3 15.6 0.00 0.00 0.00 36 1013.0
20260503180322 60 248 3.5 15.6 0.00 0.00 0.00 38 1013.4
20260503175818 60 260 6.1 18.2 0.00 0.00 0.00 37 1013.3
20260503175316 60 255 11.3 18.2 0.00 0.00 0.00 36 1013.5
20260503174812 61 268 5.2 20.9 0.00 0.00 0.00 37 1013.7
20260503174310 59 271 5.2 21.7 0.00 0.00 0.00 40 1013.4
20260503173805 60 297 3.5 9.6 0.00 0.00 0.00 40 1013.5
20260503173301 59 156 3.5 17.4 0.00 0.00 0.00 37 1013.6
20260503172758 59 225 4.3 15.6 0.00 0.00 0.00 40 1013.7
20260503172256 60 253 8.7 9.6 0.00 0.00 0.00 41 1013.7
20260503171752 59 230 6.1 18.2 0.00 0.00 0.00 37 1013.8
20260503171249 59 237 10.4 14.8 0.00 0.00 0.00 39 1013.8
20260503170746 59 168 3.5 19.1 0.00 0.00 0.00 41 1013.9
20260503170243 59 237 4.3 18.2 0.00 0.00 0.00 40 1014.0
20260503160205 57 239 4.3 16.5 0.00 0.00 0.00 40 1014.5
20260503150635 54 237 2.6 11.3 0.00 0.00 0.00 42 1015.0
20260503150131 54 267 6.1 14.8 0.00 0.00 0.00 40 1015.1
20260503131025 49 184 2.6 7.0 0.00 0.00 0.00 47 1015.7
20260503130522 48 144 2.6 11.3 0.00 0.00 0.00 49 1015.4
20260503110412 37 234 1.7 3.5 0.00 0.00 0.00 73 1015.1
20260503090309 37 239 1.7 3.5 0.00 0.00 0.00 76 1014.7
20260503081242 37 173 0.0 4.3 0.00 0.00 0.00 76 1015.2
20260503080737 37 213 1.7 4.3 0.00 0.00 0.00 76 1015.0
20260503080235 37 311 0.0 4.3 0.00 0.00 0.00 76 1014.8
20260503072712 37 253 1.7 5.2 0.00 0.00 0.00 78 1014.8
20260503072208 37 240 0.0 3.5 0.00 0.00 0.00 79 1014.9
20260503071705 37 190 0.9 3.5 0.00 0.00 0.00 78 1014.9
20260503071202 37 215 0.0 3.5 0.00 0.00 0.00 79 1014.9
20260503070659 37 242 0.9 3.5 0.00 0.00 0.00 79 1014.8
20260503070157 37 228 0.0 1.7 0.00 0.00 0.00 80 1015.0
20260503060121 38 243 3.5 5.2 0.00 0.00 0.00 78 1014.9
20260503055113 38 180 0.0 2.6 0.00 0.00 0.00 78 1015.3
20260503054609 38 209 0.9 3.5 0.00 0.00 0.00 78 1015.2
20260503054106 38 173 0.0 2.6 0.00 0.00 0.00 78 1015.1
20260503053604 38 205 1.7 4.3 0.00 0.00 0.00 78 1015.2
20260503053102 38 159 0.9 2.6 0.00 0.00 0.00 79 1015.4
20260503052558 38 211 0.9 1.7 0.00 0.00 0.00 79 1015.3
20260503052055 38 222 0.0 1.7 0.00 0.00 0.00 79 1015.2
20260503051550 38 166 0.0 1.7 0.00 0.00 0.00 79 1015.2
20260503051048 38 224 0.0 1.7 0.00 0.00 0.00 79 1015.2
20260503050543 38 246 1.7 2.6 0.00 0.00 0.00 79 1015.3
20260503050041 38 122 0.0 1.7 0.00 0.00 0.00 79 1015.2
20260503045538 38 232 0.0 2.6 0.00 0.00 0.00 78 1015.5
20260503045035 38 168 0.9 1.7 0.00 0.00 0.00 78 1015.4
20260503044532 39 228 0.0 1.7 0.00 0.00 0.00 78 1015.5
20260503044030 39 237 0.0 1.7 0.00 0.00 0.00 78 1015.4
20260503043525 39 188 0.0 1.7 0.00 0.00 0.00 78 1015.3
20260503043022 39 150 0.0 2.6 0.00 0.00 0.00 77 1015.4
20260503042519 39 289 0.9 1.7 0.00 0.00 0.00 77 1015.6
20260503042015 39 302 0.0 1.7 0.00 0.00 0.00 76 1015.4
20260503041512 40 229 0.0 2.6 0.00 0.00 0.00 75 1015.4
20260503041010 40 157 0.0 1.7 0.00 0.00 0.00 75 1015.6
20260503040507 40 131 0.0 3.5 0.00 0.00 0.00 74 1015.5
20260503040004 41 212 0.0 3.5 0.00 0.22 0.22 74 1015.5
20260503035501 41 89 0.0 2.6 0.00 0.22 0.22 73 1015.5
20260503034959 41 236 0.9 2.6 0.00 0.22 0.22 73 1015.4
20260503034456 41 240 0.9 4.3 0.00 0.22 0.22 73 1015.6
20260503033953 41 165 0.9 1.7 0.00 0.22 0.22 73 1015.6
20260503033450 41 185 0.9 5.2 0.00 0.22 0.22 73 1015.4
20260503032948 41 227 1.7 3.5 0.00 0.22 0.22 72 1015.7
20260503032446 41 247 1.7 3.5 0.00 0.22 0.22 72 1015.6
20260503031943 41 162 0.0 3.5 0.00 0.22 0.22 72 1015.7
20260503031441 41 189 0.0 2.6 0.00 0.22 0.22 71 1015.6
20260503030937 41 258 0.9 4.3 0.00 0.22 0.22 71 1015.6
20260503030434 41 137 0.9 3.5 0.00 0.22 0.22 71 1015.8
20260503025931 41 243 0.9 4.3 0.00 0.22 0.22 71 1015.7
20260503025428 41 127 0.9 3.5 0.00 0.22 0.22 70 1015.6
20260503024926 41 257 3.5 3.5 0.00 0.22 0.22 71 1015.8
20260503024422 41 116 0.0 1.7 0.00 0.22 0.22 71 1015.8
20260503023919 41 120 0.0 1.7 0.00 0.22 0.22 70 1015.8
20260503023416 41 112 0.9 2.6 0.00 0.22 0.22 71 1015.6
20260503022913 41 199 0.0 2.6 0.00 0.22 0.22 70 1016.0
20260503022408 41 153 0.9 2.6 0.00 0.22 0.22 71 1016.0
20260503021904 41 211 0.9 1.7 0.00 0.22 0.22 70 1015.9
20260503021400 41 106 0.9 1.7 0.00 0.22 0.22 70 1015.8
20260503020857 41 157 0.9 1.7 0.00 0.22 0.22 71 1015.9
20260503020355 41 112 0.0 1.7 0.00 0.22 0.22 72 1016.0
20260503015851 41 136 0.9 1.7 0.00 0.22 0.22 73 1015.9
20260503015348 41 135 0.0 1.7 0.00 0.22 0.22 73 1016.1
20260503014844 41 135 0.0 1.7 0.00 0.22 0.22 73 1016.1
20260503014342 41 135 0.0 2.6 0.00 0.22 0.22 72 1016.0
20260503013839 41 144 0.0 0.9 0.00 0.22 0.22 72 1015.7
20260503013336 41 135 0.0 0.9 0.00 0.22 0.22 73 1015.5
20260503012833 41 120 0.0 1.7 0.00 0.22 0.22 73 1015.9
20260503012331 41 135 0.0 0.9 0.00 0.22 0.22 73 1015.9
20260503011828 41 125 0.9 1.7 0.00 0.22 0.22 71 1015.9
20260503011325 41 116 0.0 1.7 0.00 0.22 0.22 70 1015.8
20260503010821 41 89 0.0 1.7 0.00 0.22 0.22 71 1015.9
20260503010319 41 128 0.0 2.6 0.00 0.22 0.22 70 1015.9
20260503005815 41 115 1.7 2.6 0.00 0.22 0.22 70 1015.8
20260503005313 41 75 0.9 1.7 0.00 0.22 0.22 69 1015.9
20260503004809 41 117 1.7 2.6 0.00 0.22 0.22 67 1015.8
20260503004307 41 119 0.0 1.7 0.00 0.22 0.22 64 1015.7
20260503003804 41 99 0.0 1.7 0.00 0.22 0.22 62 1015.6
20260503003300 42 119 0.0 0.9 0.00 0.22 0.22 62 1015.7
20260503002757 42 89 0.0 1.7 0.00 0.22 0.22 61 1015.7
20260503002254 42 79 0.0 0.9 0.00 0.22 0.22 58 1015.7
20260503001750 42 55 0.0 1.7 0.00 0.22 0.22 58 1015.7
20260503001247 42 91 0.9 0.9 0.00 0.22 0.22 58 1015.5
20260503000745 42 66 0.0 1.7 0.00 0.22 0.22 57 1015.6
20260503000242 43 14 0.0 3.5 0.00 0.22 0.22 62 1015.7
20260502235738 43 63 0.9 0.9 0.00 0.22 0.22 57 1015.6
20260502235237 43 32 0.0 1.7 0.00 0.22 0.22 58 1015.4
20260502234732 43 45 1.7 2.6 0.00 0.22 0.22 55 1015.5
20260502234230 43 39 1.7 2.6 0.00 0.22 0.22 59 1015.7
20260502233726 43 233 2.6 3.5 0.00 0.22 0.22 55 1015.6
20260502233223 44 130 0.0 1.7 0.00 0.22 0.22 58 1015.6
20260502232718 44 49 5.2 6.1 0.00 0.22 0.22 55 1015.6
20260502232216 44 61 0.0 2.6 0.00 0.22 0.22 55 1015.5
20260502231712 44 60 2.6 2.6 0.00 0.22 0.22 57 1015.5
20260502231210 44 66 3.5 3.5 0.00 0.22 0.22 56 1015.6
20260502230709 44 62 1.7 2.6 0.00 0.22 0.22 58 1015.7
20260502230207 44 17 2.6 6.1 0.00 0.22 0.22 54 1015.6
20260502225702 44 58 3.5 5.2 0.00 0.22 0.22 56 1015.6